ZY 3 04

导读

ZY 3 04即资源三号04星,是中国于2025年12月16日在太原卫星发射中心,通过长征四号乙运载火箭成功发射的高分辨率立体测图业务卫星。该星配置三线阵立体测绘相机等载荷,可获取高精度影像,将与同系列02、03星组网,缩短重访周期,为测绘生产、自然资源监管、国土空间规划等领域提供可靠数据支撑。

基本信息
目录编号:
67131
目录名称:
ZY 3 04
国际标识:
2025-300A
轨道中心:
EARTH
卫星名称:
ZY 3 04
卫星全名:
ZY 3 04
卫星状态:
在轨 (已飞行269 天)
发射日期:
2025-12-16 UTC
国别 :
中国 (CN)
星等 :
--
轨道信息
数据来源 国际轨道数据
星历时间: 2026-09-10T06:46:37+0800
1天前
查看轨道信息
半长轴: 6879.747km
偏心率: 0.0006828
轨道倾角: 97.468°
近地点辐角 25.451°
升交点赤经 330.193°
平近点角 334.706°
近地点: 496.912km
远地点: 506.308km
周期: 94.650分钟
每日圈数: 15.214025
详细信息
使用方式:
暂无
2D轨道图
3D轨道图
轨道高度分析图
轨道倾角分析图
轨道综合分析图
查看轨道综合分析图
交会数据列表
事件ID 空间交会对象 最接近时刻(TCA) 交会距离 交会风险概率(CRP) 交会风险指数(CRI) 操作
CDM_260911-161404-591506-713125
OBJECT E (45915)
ZY 3 04 (67131)
2026-09-11T
16:14:15+0000
2.384 km
极远距离
1.455239E-6 低风险 0.38
与全量物体交会距离演化趋势
与全量物体交会风险概率演化趋势